Location: ČR
(50.0000°N, 15.0000°E)
Time: 14:07:53
(UTC+00:00)

Tiros 1 despin weight - Visible Passes

Search period start: 25 October 2021 00:00
Search period end: 04 November 2021 00:00
Orbit: 592 x 641 km, 48.2° (Epoch: 24 October)

Date Brightness Start Highest point End Pass type
(mag) Time Alt. Az. Time Alt. Az. Time Alt. Az.
25 Oct ? 02:28:20 12° SE 02:28:39 12° SE 02:30:23 10° ESE visible
25 Oct ? 04:05:24 12° SW 04:09:17 38° SSE 04:13:38 10° E visible
26 Oct ? 02:44:14 20° SE 02:44:25 20° SE 02:47:49 10° E visible
26 Oct ? 04:21:18 13° SW 04:25:20 52° SSE 04:29:54 10° E visible
27 Oct ? 03:00:02 30° SSE 03:00:18 30° SSE 03:04:24 10° E visible
27 Oct ? 04:37:05 12° WSW 04:41:26 64° S 04:46:05 10° E visible
28 Oct ? 03:15:45 41° S 03:16:17 43° SSE 03:20:44 10° E visible
28 Oct ? 04:52:56 10° W 04:57:36 72° S 05:02:17 10° E visible
29 Oct ? 01:54:22 13° E 01:54:22 13° E 01:55:04 10° E visible
29 Oct ? 03:31:25 47° SSW 03:32:21 57° SSE 03:36:58 10° E visible
29 Oct ? 05:09:06 10° W 05:13:46 71° S 05:18:27 10° ESE visible
30 Oct ? 02:09:59 19° E 02:09:59 19° E 02:11:32 10° E visible
30 Oct ? 03:47:02 42° WSW 03:48:30 68° S 03:53:10 10° E visible
31 Oct ? 02:25:34 26° E 02:25:34 26° E 02:27:49 10° E visible
31 Oct ? 04:02:37 33° WSW 04:04:40 72° S 04:09:20 10° E visible
01 Nov ? 02:41:08 36° ESE 02:41:08 36° ESE 02:44:02 10° E visible
01 Nov ? 04:18:11 25° W 04:20:49 68° S 04:25:29 10° ESE visible
02 Nov ? 02:56:42 48° ESE 02:56:42 48° ESE 03:00:13 10° E visible
02 Nov ? 04:33:44 19° W 04:36:57 58° SSW 04:41:33 10° ESE visible
03 Nov ? 03:12:16 63° SE 03:12:16 63° SE 03:16:23 10° E visible
03 Nov ? 04:49:19 14° W 04:53:01 44° SSW 04:57:28 10° SE visible
